Location: La Silve
(44.2414°N, 5.8889°E)
Time: 13:54:01
(UTC+00:00)

CENTAUR R/B - Visible Passes

Search period start: 11 April 2021 00:00
Search period end: 21 April 2021 00:00
Orbit: 742 x 1446 km, 63.4° (Epoch: 31 March)

Date Brightness Start Highest point End Pass type
(mag) Time Alt. Az. Time Alt. Az. Time Alt. Az.
11 Apr 3.6 18:50:14 10° NNW 18:58:03 52° NE 19:06:26 11° ESE visible
11 Apr 3.8 20:41:03 10° NW 20:49:00 51° WSW 20:53:39 28° S visible
12 Apr 3.4 19:52:33 10° NW 20:00:46 75° WSW 20:07:25 20° SSE visible
12 Apr 5.0 21:45:10 10° WNW 21:50:35 19° WSW 21:54:38 14° SW visible
13 Apr 3.3 19:04:12 10° NW 19:12:23 78° NE 19:21:16 10° SE visible
13 Apr 4.6 20:55:42 10° NW 21:02:43 30° WSW 21:08:29 15° SSW visible
14 Apr 4.0 20:06:51 10° NW 20:14:41 46° WSW 20:22:25 12° S visible
15 Apr 3.6 19:18:19 10° NW 19:26:30 69° WSW 19:35:20 10° SSE visible
15 Apr 5.3 21:11:21 10° WNW 21:16:11 16° WSW 21:21:08 10° SW visible
16 Apr 4.8 20:21:38 10° WNW 20:28:21 27° WSW 20:35:23 10° SSW visible
17 Apr 4.3 19:32:41 10° NW 19:40:22 42° WSW 19:48:31 10° S visible
18 Apr 3.8 18:44:04 10° NW 18:52:13 63° WSW 19:00:58 10° SSE visible
18 Apr 5.5 20:37:40 10° WNW 20:41:46 14° WSW 20:45:58 10° SW visible
19 Apr 5.1 19:47:35 10° WNW 19:53:59 24° WSW 20:00:39 10° SSW visible
20 Apr 4.6 18:58:31 10° NW 19:06:02 38° WSW 19:14:00 10° S visible
